Location: Ravensburg
(48.5621°N, 13.4088°E)
Time: 11:01:41
(UTC+01:00)

ISS - Pass Details

Date: 11 February 2018
Orbit: 403 x 407 km, 51.6° (Epoch: 20 February)

Event Time Altitude Azimuth Distance (km) Brightness Sun altitude
Rises 19:25:18 0° 281° (WNW) 2,321 1.5 -21.0°
Reaches altitude 10° 19:28:24 10° 249° (WSW) 1,457 -0.1 -21.5°
Maximum altitude 19:29:44 12° 225° (SW) 1,340 -0.7 -21.7°
Drops below altitude 10° 19:31:03 10° 201° (SSW) 1,453 -0.8 -22.0°
Enters shadow 19:31:42 - 191° (SSW) 1,580 -0.8 -22.1°
